カタログに戻る

CZ-4 DEB

運用中PO
NORAD 26654·DEBRIS·🇨🇳 China

打ち上げ Oct 14, 1999 から Taiyuan Satellite Launch Center

Loading…

次のパス (今後24時間)

TLE

最新Source: Space-Track

元期: Sep 14, 2026, 13:12 UTC

1 26654U 99057LL  26257.55010182  .00008284  00000-0  12700-2 0  9991
2 26654  98.6572  15.5977 0079708 123.4835 237.4021 14.71775367364003

AllMySatでCZ-4 DEBをリアルタイム追跡

Download on the App Store